SL-8 DEB, 1549

Orbit data source: Space-Track

SL-8 DEB, 1549 is space debris in LEO originally from a launch on Mon, 15 Mar 1965 UTC launched from the Tyuratam Missile And Space Complex (TTMTR). Debris objects in space refer to the collection of defunct objects orbiting the Earth. Examples of debris include non-operational satellites, rocket bodies, and fragments generated from explosions, collisions, or faulty payload assembly.

Loading next visibility...
Identifier
1549, 1965-020CV
Orbit
LEO
Country
Flag of CISCIS
Related business
Manufacturer
Unknown
Mission
Spacecraft
Bus & Motor
Unknown
Mass
Unknown
Launch date (UTC)
1965-03-15 (61 years ago)
Launch vehicle
Unknown
Launch site
Tyuratam Missile And Space Complex (TTMTR)
Object type
Payload
Rocket body
Debris
Shape & HBR
Unknown shape, 0.1 m
Radar Cross Section
Medium (>0.1 m² and <1 m²)

Expand to show TLE details & history
Last TLE update: 19 hours ago

TLE from 19 hours ago
0 SL-8 DEB
1 01549U 65020CV  25292.15488747  .00000529  00000-0  83914-3 0  9990
2 01549  56.1621 238.7305 0842573 130.4338 237.3231 12.64282723784457
Epoch: 2025-10-19T03:43Z
TLE epoch observation values (Epoch: 2025-10-19T03:43:02.277Z)
Latitude
-0.00005°
Longitude
155.09536°
Altitude
1,797.03 km
Speed
6.807 km/s
True Right ascension
15h 54m 55s
True Declination
0° 00' 00"
Sunlit
Object was in daylight at epoch
Visualization orbit readout
Latitude
Unknown
Longitude
Unknown
Altitude
Unknown
Speed
Unknown
Apparent Right ascension
Unknown
Apparent Declination
Unknown
Sunlit
N/A
Visualization observer readout
Local Sidereal Time
17:09:38
Azimuth
Unknown
Elevation
Unknown
Doppler factor
Unknown
Orbital elements
Apogee altitude
2,060.919 km
Perigee altitude
749.326 km
Semi-major axis
7,783.259 km
Eccentricity
0.08426
Inclination
56.1621°
RAAN
238.7305°
Arg. of periapsis
130.4338°
True anomaly
229.65695°
Mean anomaly
237.3231°
Eccentric anomaly
233.44516°
Mean motion
3.16083 °/min
Orbital period
113.89 mins
BSTAR
0.00083914
Loading maneuver chart data...
Computing Atmospheric mass density...

Documentation

Showing up to 5 results
|